Regional Weather Roundup
Issued by NWS

Home | Current Version | Previous Version | Text Only | Print | Product List | Glossary On
Versions: 1 2 3 4 5 6 7 8 9 10 11 12 13 14 15 16 17 18 19 20 21 22 23 24 25 26 27 28 29 30 31 32 33 34 35 36 37 38 39 40 41 42 43 44 45 46 47
000
ASUS42 KFFC 031503
RWRGA
WEATHER ROUNDUP FOR GEORGIA
NATIONAL WEATHER SERVICE PEACHTREE CITY GA
1100 AM EDT WED JUN 03 2015

NOTE: "FAIR" INDICATES FEW OR NO CLOUDS BELOW 12,000 FEET WITH NO
SIGNIFICANT WEATHER AND/OR OBSTRUCTIONS TO VISIBILITY.

* = USE WITH CAUTION. THE STATIONS MARKED WITH AN ASTERISK MAY NOT
REPORT WEATHER SUCH AS PRECIPITATION, FOG, OR THUNDER AND ARE NOT
QUALITY CONTROLLED BY NWS.

THE REMARK "TC" DENOTES TEMPERATURE READING IN DEGREES CELSIUS.

GAZ001>058-031600-
NORTH GEORGIA

CITY           SKY/WX    TMP DP  RH WIND       PRES   REMARKS
ATLANTA        PTSUNNY   71  64  78 E8        30.00S
ATHENS         CLOUDY    72  62  71 E8        30.02S
CHAMBLEE       MOSUNNY   73  63  70 NE6       30.01S
PEACHTREE CITY MOSUNNY   76  66  71 E8        29.99S
ROME           CLOUDY    69  64  84 NE5       30.00S
WEST ATLANTA   MOSUNNY   75  64  68 CALM      29.99F
GAINESVILLE    PTSUNNY   72  60  66 E7        30.05S
CARTERSVILLE   CLOUDY    73  64  73 NE6       30.00F


CITY           SKY/WX    TMP DP  RH WIND       PRES   REMARKS
DALTON*        PTSUNNY   68  64  88 CALM      30.02S
LAWRENCEVILLE* PTSUNNY   73  59  60 E7        30.00
MARIETTA       MOSUNNY   73  65  76 E9        30.00F
KENNESAW*      MOSUNNY   73  64  73 SE6       30.01S
BLAIRSVILLE*     N/A     71  49  45 CALM      30.05S
$$

GAZ059>098-102>109-031600-
CENTRAL GEORGIA

CITY           SKY/WX    TMP DP  RH WIND       PRES   REMARKS
AUGUSTA-BUSH   CLOUDY    75  64  68 NE8       30.00F
AUGUSTA-DANIEL MOSUNNY   75  62  64 NE8       30.01F
COLUMBUS       SUNNY     79  67  66 VRB3      29.95F
MACON          MOSUNNY   76  67  73 CALM      29.98F
ROBINS AFB     PTSUNNY   75  69  79 CALM      29.97F


CITY           SKY/WX    TMP DP  RH WIND       PRES   REMARKS
LAGRANGE*      SUNNY     80  72  76 CALM      29.97F
SYLVANIA*      MOSUNNY   79  71  74 CALM      29.99S
MILLEDGEVILLE* PTSUNNY   77  72  83 NE5       29.99S
$$

GAZ099>101-110>166-031600-
SOUTH GEORGIA

CITY           SKY/WX    TMP DP  RH WIND       PRES   REMARKS
SAVANNAH       PTSUNNY   77  68  73 CALM      29.98S
VALDOSTA       MOSUNNY   81  70  69 CALM      29.98S
ALMA           PTSUNNY   77  70  79 CALM      29.98F
FT STEWART     MOSUNNY   80  68  67 SW3       29.95F
ALBANY         PTSUNNY   80  69  69 CALM      29.98F
HUNTER AFB     MOSUNNY   80  69  70 CALM      29.96S
MOODY AFB      MOSUNNY   81  69  66 VRB2      29.96F
BRUNSWICK      MOSUNNY   79  72  78 NW3       29.98F


CITY           SKY/WX    TMP DP  RH WIND       PRES   REMARKS
BAINBRIDGE*    MOSUNNY   84  72  65 W7        29.96F
MOULTRIE*      MOSUNNY   81  68  65 SW5       29.98S
VIDALIA*       PTSUNNY   77  70  78 S5        29.99S
WAYCROSS*      PTSUNNY   78  72  81 N3        29.98F
DOUGLAS*       MOSUNNY   79  70  73 CALM      30.00S
$$



USA.gov is the U.S. government's official web portal to all federal, state and local government web resources and services.